EW5822 Weather Reports


Display with metric or nautical units.
time (UTC)temp
F
wind
direction
speed
MPH
gust
MPH
rain 1hr
in
rain 24hr
in
rain mn
in
humidity
%
barometer
mb
20260503214504 81 107 3.0 7.0 0.00 0.00 0.00 31 1007.0
20260503213817 82 113 1.0 4.0 0.00 0.00 0.00 31 1007.1
20260503212703 82 91 2.0 7.0 0.00 0.00 0.00 29 1007.2
20260503212017 82 86 1.0 3.0 0.00 0.00 0.00 30 1007.3
20260503210903 82 35 3.0 8.0 0.00 0.00 0.00 32 1007.4
20260503210003 82 34 5.0 12.0 0.00 0.00 0.00 31 1007.6
20260503205403 82 43 3.0 7.0 0.00 0.00 0.00 28 1007.7
20260503204503 81 211 1.0 5.0 0.00 0.00 0.00 29 1008.0
20260503203603 81 240 2.0 7.0 0.00 0.00 0.00 30 1008.1
20260503202703 81 312 3.0 11.0 0.00 0.00 0.00 30 1008.3
20260503202012 81 342 4.0 11.0 0.00 0.00 0.00 31 1008.4
20260503201115 80 320 2.0 8.0 0.00 0.00 0.00 36 1008.6
20260503200217 80 329 4.0 8.0 0.00 0.00 0.00 34 1008.9
20260503195403 80 204 2.0 6.0 0.00 0.00 0.00 34 1009.0
20260503194503 79 187 1.0 4.0 0.00 0.00 0.00 32 1009.2
20260503193813 79 17 2.0 7.0 0.00 0.00 0.00 34 1009.2
20260503192703 79 144 2.0 6.0 0.00 0.00 0.00 35 1009.4
20260503191803 78 177 2.0 8.0 0.00 0.00 0.00 35 1009.5
20260503190903 78 240 4.0 9.0 0.00 0.00 0.00 35 1009.6
20260503190213 78 268 5.0 9.0 0.00 0.00 0.00 35 1009.7
20260503185614 78 279 3.0 8.0 0.00 0.00 0.00 38 1009.7
20260503184717 77 318 5.0 10.0 0.00 0.00 0.00 35 1009.9
20260503183603 77 326 4.0 9.0 0.00 0.00 0.00 34 1010.0
20260503182703 77 345 3.0 9.0 0.00 0.00 0.00 35 1010.1
20260503182014 76 337 5.0 13.0 0.00 0.00 0.00 38 1010.3
20260503181116 76 298 5.0 12.0 0.00 0.00 0.00 38 1010.4
20260503180003 76 284 8.0 13.0 0.00 0.00 0.00 37 1010.7
20260503175615 76 273 6.0 12.0 0.00 0.00 0.00 38 1010.7
20260503174712 76 281 8.0 12.0 0.00 0.00 0.00 41 1010.8
20260503173814 75 292 9.0 16.0 0.00 0.00 0.00 38 1010.8
20260503172917 75 286 9.0 16.0 0.00 0.00 0.00 40 1010.9
20260503172014 75 273 7.0 13.0 0.00 0.00 0.00 40 1011.1
20260503170903 74 284 9.0 15.0 0.00 0.00 0.00 44 1011.3
20260503150903 65 228 8.0 15.0 0.00 0.00 0.00 56 1011.9
20260503150215 65 228 9.0 17.0 0.00 0.00 0.00 55 1012.0
20260503131114 57 179 14.0 21.0 0.00 0.00 0.00 64 1011.7
20260503130216 56 175 16.0 22.0 0.00 0.00 0.00 64 1011.7
20260503120217 51 175 8.0 13.0 0.00 0.00 0.00 71 1012.0
20260503100218 52 165 17.0 21.0 0.00 0.00 0.00 61 1012.3
20260503090214 52 164 14.0 18.0 0.00 0.00 0.00 60 1012.9
20260503080903 52 159 14.0 17.0 0.00 0.00 0.00 56 1013.0
20260503080214 53 156 14.0 20.0 0.00 0.00 0.00 55 1013.0
20260503072913 52 154 13.0 17.0 0.00 0.00 0.00 58 1013.3
20260503072015 52 156 13.0 18.0 0.00 0.00 0.00 57 1013.4
20260503071113 52 157 14.0 19.0 0.00 0.00 0.00 56 1013.5
20260503070215 52 162 15.0 21.0 0.00 0.00 0.00 56 1013.7
20260503060216 54 159 17.0 22.0 0.00 0.00 0.00 52 1013.9
20260503054503 54 156 14.0 19.0 0.00 0.00 0.00 52 1014.1
20260503053603 54 156 14.0 19.0 0.00 0.00 0.00 53 1014.1
20260503052914 54 153 13.0 18.0 0.00 0.00 0.00 54 1014.2
20260503051803 54 150 12.0 16.0 0.00 0.00 0.00 55 1014.2
20260503051114 54 149 13.0 18.0 0.00 0.00 0.00 54 1014.4
20260503050216 54 148 13.0 17.0 0.00 0.00 0.00 54 1014.4
20260503045613 54 146 12.0 15.0 0.00 0.00 0.00 55 1014.4
20260503044504 54 144 12.0 16.0 0.00 0.00 0.00 54 1014.5
20260503043813 54 145 12.0 16.0 0.00 0.00 0.00 54 1014.5
20260503042703 54 145 11.0 15.0 0.00 0.00 0.00 54 1014.6
20260503041803 53 144 10.0 13.0 0.00 0.00 0.00 56 1014.8
20260503040903 52 141 9.0 13.0 0.00 0.00 0.00 58 1014.9
20260503040004 52 137 10.0 11.0 0.00 0.00 0.00 58 1015.0
20260503035614 52 136 10.0 12.0 0.00 0.00 0.00 58 1015.0
20260503034503 53 136 10.0 12.0 0.00 0.00 0.00 56 1015.2
20260503033813 53 136 11.0 13.0 0.00 0.00 0.00 55 1015.3
20260503032916 53 138 9.0 11.0 0.00 0.00 0.00 56 1015.3
20260503032013 53 136 9.0 11.0 0.00 0.00 0.00 57 1015.4
20260503031116 52 139 8.0 9.0 0.00 0.00 0.00 59 1015.5
20260503030003 52 135 8.0 9.0 0.00 0.00 0.00 58 1015.6
20260503025614 52 134 8.0 9.0 0.00 0.00 0.00 58 1015.6
20260503024717 53 134 8.0 9.0 0.00 0.00 0.00 57 1015.6
20260503023603 54 135 6.0 8.0 0.00 0.00 0.00 54 1015.7
20260503022916 54 136 5.0 7.0 0.00 0.00 0.00 53 1015.7
20260503021803 54 136 6.0 7.0 0.00 0.00 0.00 52 1015.7
20260503021116 54 137 6.0 7.0 0.00 0.00 0.00 52 1015.8
20260503020213 55 140 5.0 7.0 0.00 0.00 0.00 50 1015.7
20260503015615 56 145 5.0 8.0 0.00 0.00 0.00 48 1015.7
20260503014503 57 147 7.0 9.0 0.00 0.00 0.00 47 1015.6
20260503013815 58 153 6.0 8.0 0.00 0.00 0.00 46 1015.6
20260503012917 59 169 6.0 7.0 0.00 0.00 0.00 43 1015.6
20260503011803 62 173 5.0 7.0 0.00 0.00 0.00 40 1015.7
20260503010903 63 173 5.0 6.0 0.00 0.00 0.00 36 1015.7
20260503010003 64 180 4.0 6.0 0.00 0.00 0.00 35 1015.7
20260503005615 65 189 4.0 7.0 0.00 0.00 0.00 34 1015.7
20260503004713 66 189 5.0 7.0 0.00 0.00 0.00 33 1015.7
20260503003603 66 204 7.0 11.0 0.00 0.00 0.00 33 1015.7
20260503002918 67 209 7.0 10.0 0.00 0.00 0.00 33 1015.8
20260503002015 67 205 7.0 12.0 0.00 0.00 0.00 31 1015.8
20260503001112 68 201 6.0 12.0 0.00 0.00 0.00 30 1015.9
20260503000003 68 206 7.0 11.0 0.00 0.00 0.00 30 1015.9
20260502235616 68 203 8.0 11.0 0.00 0.00 0.00 30 1016.0
20260502234713 68 199 8.0 13.0 0.00 0.00 0.00 31 1016.0
20260502233603 68 211 6.0 10.0 0.00 0.00 0.00 30 1016.1
20260502232913 68 210 6.0 10.0 0.00 0.00 0.00 29 1016.2
20260502231803 69 223 5.0 14.0 0.00 0.00 0.00 29 1016.3
20260502230903 69 233 4.0 9.0 0.00 0.00 0.00 28 1016.4
20260502230004 69 227 6.0 12.0 0.00 0.00 0.00 30 1016.4
20260502225617 68 226 5.0 12.0 0.00 0.00 0.00 30 1016.4
20260502224714 69 229 7.0 14.0 0.00 0.00 0.00 29 1016.5
20260502223603 69 185 7.0 14.0 0.00 0.00 0.00 29 1016.4
20260502222914 68 172 10.0 17.0 0.00 0.00 0.00 30 1016.6
20260502221803 69 240 3.0 12.0 0.00 0.00 0.00 33 1016.7
20260502220903 68 250 6.0 11.0 0.00 0.00 0.00 28 1016.8
20260502220216 69 225 6.0 11.0 0.00 0.00 0.00 30 1016.9
20260502215617 69 217 5.0 11.0 0.00 0.00 0.00 32 1016.9